Tracking 30009 objects as of 8-Dec-2024
HD Live streaming from Space Station
objects crossing your sky now

STARLINK-3172

Track STARLINK-3172 now!
10-day predictions
STARLINK-3172 is classified as:


NORAD ID: 51139
Int'l Code: 2022-005AM
Perigee: 545.9 km
Apogee: 547.9 km
Inclination: 53.2 °
Period: 95.4 minutes
Semi major axis: 6917 km
RCS: Unknown
Launch date: January 19, 2022
Source: United States (US)
Launch site: AIR FORCE EASTERN TEST RANGE (AFETR)
Your satellite tracking list
Your tracking list is empty




NASA's NSSDC Master Catalog

Two Line Element Set (TLE):
1 51139U 22005AM  24342.78611371  .00001142  00000-0  89858-4 0  9997
2 51139  53.2162 190.2488 0001472  89.9120 270.2040 15.08842151160877
Source of the keplerian elements: AFSPC